Location: Poughquag
(41.6090°N, 73.6820°W)
Time: 21:30:58
(UTC-04:00)

ACS3 Solar Sail - Visible Passes

Search period start: 15 April 2026 00:00
Search period end: 25 April 2026 00:00
Orbit: 871 x 977 km, 97.2° (Epoch: 15 April)

Date Brightness Start Highest point End Pass type
(mag) Time Alt. Az. Time Alt. Az. Time Alt. Az.
15 Apr 3.4 01:17:47 10° NNE 01:21:00 26° ENE 01:21:00 26° ENE visible
15 Apr 2.7 03:00:01 10° N 03:04:34 37° NW 03:04:34 37° NW visible
16 Apr 3.2 01:27:19 10° NNE 01:30:58 31° NE 01:30:58 31° NE visible
16 Apr 2.8 03:09:55 10° N 03:14:31 32° NW 03:14:31 32° NW visible
17 Apr 2.9 01:36:52 10° NNE 01:40:53 37° NE 01:40:53 37° NE visible
17 Apr 3.0 03:19:50 10° N 03:24:27 27° WNW 03:24:27 27° WNW visible
18 Apr 2.6 01:46:26 10° NNE 01:50:46 44° NE 01:50:46 44° NE visible
18 Apr 3.1 03:29:46 10° NNW 03:34:19 23° WNW 03:34:19 23° WNW visible
19 Apr 2.4 01:56:00 10° NNE 02:00:37 52° NE 02:00:37 52° NE visible
19 Apr 3.3 03:39:44 10° NNW 03:43:51 19° WNW 03:44:10 19° WNW visible
20 Apr 4.2 00:26:13 10° ENE 00:26:52 11° ENE 00:26:52 11° ENE visible
20 Apr 2.2 02:05:35 10° NNE 02:10:25 59° NNE 02:10:25 59° NNE visible
20 Apr 3.5 03:49:46 10° NNW 03:53:17 16° WNW 03:53:59 16° WNW visible
21 Apr 4.0 00:34:48 10° NE 00:36:39 14° ENE 00:36:39 14° ENE visible
21 Apr 2.1 02:15:09 10° N 02:20:12 63° N 02:20:12 63° N visible
21 Apr 3.7 03:59:58 10° NNW 04:02:40 13° WNW 04:03:45 13° WNW visible
22 Apr 3.8 00:43:43 10° NE 00:46:23 17° ENE 00:46:23 17° ENE visible
22 Apr 2.1 02:24:43 10° N 02:29:56 60° NNW 02:29:56 60° NNW visible
22 Apr 3.8 04:10:37 10° NW 04:12:01 11° WNW 04:13:24 10° WNW visible
23 Apr 3.6 00:52:47 10° NE 00:56:05 21° ENE 00:56:05 21° ENE visible
23 Apr 2.1 02:34:16 10° N 02:39:38 53° NW 02:39:38 53° NW visible
24 Apr 3.3 01:01:56 10° NE 01:05:45 26° ENE 01:05:45 26° ENE visible
24 Apr 2.3 02:43:50 10° N 02:49:18 46° WNW 02:49:18 46° WNW visible
